Imperial, NE

6:23 PM MDT on May 26, 2018 (GMT -0600)
Imperial Municipal

Weather History for KIML - November, 2015

Change the Weather History Date:

Thursday, November 26, 2015

  Actual Average Record
Temperature  
Mean Temperature 26 °F 33 °F  
Max Temperature 32 °F 46 °F 76 °F (2017)
Min Temperature 20 °F 20 °F -10 °F (1896)
Degree Days  
Heating Degree Days 39 32  
Month to date heating degree days 614 687  
Cooling Degree Days 0 0  
Month to date cooling degree days 0 0  
Year to date cooling degree days 1040 963  
Moisture  
Dew Point 19 °F    
Average Humidity 80    
Maximum Humidity 92    
Minimum Humidity 68    
Precipitation  
Precipitation T in 0.01 in 0.42 in (2001)
Sea Level Pressure  
Sea Level Pressure 30.36 in    
Wind  
Wind Speed 16 mph (NNE)    
Max Wind Speed 23 mph    
Max Gust Speed 27 mph    
Visibility 10 miles    
Events Snow    
T = Trace of Precipitation, MM = Missing Value Source: NWS Daily Summary

Daily Weather History Graph

Daily Weather History Graph

Search for Another Location

Airport or City:

Astronomy

Nov. 26, 2015 Rise Set
Actual Time 6:45 AM MST 4:22 PM MST
Civil Twilight 6:15 AM MST 4:52 PM MST
Nautical Twilight 5:41 AM MST 5:25 PM MST
Astronomical Twilight 5:08 AM MST 5:58 PM MST
Moon 5:33 PM MST (11/26) 7:14 AM MST (11/26)
Length of Visible Light 10h 37m
Length of Day
9h 37m
Full, 99% of the Moon is Illuminated
Nov 26
Full
Dec 3
Last Quarter
Dec 11
New
Dec 18
First Quarter
Dec 25
Full

Hourly Weather History & Observations

Time (MST) Temp. Windchill Dew Point Humidity Pressure Visibility Wind Dir Wind Speed Gust Speed Precip Events Conditions
12:29 AM 28.9 °F 18.6 °F 27.0 °F 92% 30.13 in 10.0 mi NNE 12.7 mph - N/A   Overcast
12:51 AM 28.4 °F 18.5 °F 26.6 °F 93% 30.13 in 10.0 mi NNE 11.5 mph - N/A   Overcast
12:53 AM 28.9 °F 20.4 °F 27.0 °F 92% 30.19 in 10.0 mi NNE 9.2 mph - N/A   Overcast
1:53 AM 27.0 °F 13.9 °F 24.1 °F 89% 30.22 in 10.0 mi NNE 18.4 mph - N/A   Overcast
2:13 AM 28.0 °F 15.3 °F 23.0 °F 81% 30.16 in 10.0 mi NNE 18.4 mph - N/A   Unknown
2:39 AM 28.9 °F 17.7 °F 23.0 °F 78% 30.16 in 10.0 mi NNE 15.0 mph - N/A   Overcast
2:53 AM 30.0 °F 17.9 °F 23.0 °F 75% 30.23 in 10.0 mi NNE 18.4 mph 26.5 mph N/A   Unknown
3:23 AM 27.0 °F 13.9 °F 23.0 °F 85% 30.17 in 10.0 mi North 18.4 mph - N/A   Overcast
3:48 AM 26.6 °F 12.7 °F 21.2 °F 80% 30.18 in 10.0 mi North 20.7 mph - N/A   Unknown
3:53 AM 27.0 °F 13.9 °F 21.9 °F 81% 30.28 in 10.0 mi North 18.4 mph 25.3 mph N/A   Unknown
4:18 AM 27.0 °F 14.7 °F 21.0 °F 78% 30.20 in 10.0 mi NNE 16.1 mph - N/A   Overcast
4:27 AM 24.1 °F 11.5 °F 21.0 °F 88% 30.21 in 10.0 mi NNE 15.0 mph - N/A   Overcast
4:53 AM 24.1 °F 11.0 °F 21.0 °F 88% 30.30 in 10.0 mi NNE 16.1 mph - N/A   Overcast
5:41 AM 24.1 °F 10.1 °F 21.0 °F 88% 30.22 in 10.0 mi North 18.4 mph - N/A   Overcast
5:53 AM 24.1 °F 10.6 °F 21.0 °F 88% 30.32 in 10.0 mi NNE 17.3 mph - N/A   Overcast
6:53 AM 23.0 °F 8.7 °F 19.9 °F 88% 30.35 in 10.0 mi NNE 18.4 mph - N/A   Overcast
7:53 AM 23.0 °F 9.6 °F 19.9 °F 88% 30.38 in 10.0 mi NNE 16.1 mph - N/A   Overcast
8:53 AM 23.0 °F 10.1 °F 19.9 °F 88% 30.40 in 10.0 mi NNE 15.0 mph - N/A   Overcast
9:53 AM 23.0 °F 8.7 °F 19.0 °F 85% 30.43 in 10.0 mi North 18.4 mph - N/A   Overcast
10:53 AM 23.0 °F 8.7 °F 19.0 °F 85% 30.43 in 10.0 mi North 18.4 mph - N/A   Overcast
11:53 AM 23.0 °F 8.3 °F 19.0 °F 85% 30.43 in 10.0 mi North 19.6 mph - 0.00 in Snow Light Snow
12:53 PM 23.0 °F 8.7 °F 19.0 °F 85% 30.42 in 10.0 mi North 18.4 mph - 0.00 in   Overcast
1:53 PM 23.0 °F 8.3 °F 18.0 °F 81% 30.42 in 10.0 mi North 19.6 mph - N/A   Overcast
2:49 PM 21.2 °F 6.8 °F 17.6 °F 86% 30.32 in 10.0 mi NNE 17.3 mph - N/A   Overcast
2:53 PM 21.9 °F 7.8 °F 17.1 °F 82% 30.44 in 10.0 mi NNE 17.3 mph - N/A   Overcast
3:33 PM 21.9 °F 8.2 °F 17.1 °F 82% 30.35 in 10.0 mi North 16.1 mph - N/A   Overcast
3:53 PM 21.9 °F 8.2 °F 17.1 °F 82% 30.46 in 10.0 mi NNE 16.1 mph - N/A   Overcast
4:04 PM 21.9 °F 8.2 °F 17.1 °F 82% 30.35 in 10.0 mi North 16.1 mph - N/A   Overcast
4:53 PM 21.9 °F 10.4 °F 17.1 °F 82% 30.49 in 10.0 mi NNE 11.5 mph - N/A   Overcast
5:53 PM 21.9 °F 9.8 °F 17.1 °F 82% 30.52 in 10.0 mi NNE 12.7 mph - N/A   Overcast
6:53 PM 21.9 °F 9.2 °F 17.1 °F 82% 30.54 in 10.0 mi North 13.8 mph - N/A   Overcast
7:28 PM 21.9 °F 8.7 °F 17.1 °F 82% 30.42 in 10.0 mi North 15.0 mph - N/A   Overcast
7:53 PM 21.0 °F 7.6 °F 17.1 °F 85% 30.55 in 10.0 mi North 15.0 mph - N/A   Overcast
8:05 PM 21.0 °F 7.6 °F 15.1 °F 78% 30.43 in 10.0 mi North 15.0 mph - N/A   Overcast
8:53 PM 21.0 °F 6.6 °F 14.0 °F 74% 30.58 in 10.0 mi North 17.3 mph - N/A   Overcast
9:53 PM 21.0 °F 5.4 °F 12.9 °F 71% 30.58 in 10.0 mi North 20.7 mph 24.2 mph N/A   Overcast
10:53 PM 19.9 °F 6.7 °F 12.9 °F 74% 30.62 in 10.0 mi North 13.8 mph - N/A   Overcast
11:53 PM 19.9 °F 7.3 °F 14.0 °F 78% 30.62 in 9.0 mi North 12.7 mph - 0.00 in Snow Light Snow